Photometre #354[Standard_N] Mount_Chacaltaya AOT

File : 20210608_354.hum

08/06/2021,11:37:58,TEMP=-5.0,BA=5.60,STAT.A=Abs.,ExtBa=12.57
08/06/2021,11:40:57,TEMP=-4.8,BA=5.48,STAT.A=Abs.,ExtBa=12.51
08/06/2021,11:44:27,TEMP=-4.7,BA=5.48,STAT.A=Abs.,ExtBa=12.49
08/06/2021,11:48:35,TEMP=-4.7,BA=5.48,STAT.A=Abs.,ExtBa=12.48
08/06/2021,12:03:25,TEMP=-4.5,BA=5.60,STAT.A=Abs.,ExtBa=12.54
08/06/2021,12:06:24,TEMP=-4.4,BA=5.60,STAT.A=Abs.,ExtBa=12.50
08/06/2021,12:09:24,TEMP=-4.3,BA=5.60,STAT.B=Abs.,ExtBa=12.48
08/06/2021,12:12:24,TEMP=-4.2,BA=5.48,STAT.A=Abs.,ExtBa=12.48
08/06/2021,12:15:31,TEMP=-4.1,BA=5.48,STAT.A=Abs.,ExtBa=12.47
08/06/2021,12:20:15,TEMP=-3.9,BA=5.56,STAT.A=Abs.,ExtBa=12.46
08/06/2021,12:25:38,TEMP=-3.1,BA=5.56,STAT.A=Abs.,ExtBa=12.50
08/06/2021,12:31:49,TEMP=-2.4,BA=5.64,STAT.C=Abs.,ExtBa=12.51
08/06/2021,12:39:00,TEMP=-1.7,BA=5.64,STAT.A=Abs.,ExtBa=12.67
08/06/2021,12:47:29,TEMP=-1.9,BA=5.52,STAT.A=Abs.,ExtBa=12.68
08/06/2021,12:57:38,TEMP=-1.9,BA=5.64,STAT.A=Abs.,ExtBa=12.64
08/06/2021,13:10:06,TEMP=-1.0,BA=5.64,STAT.A=Abs.,ExtBa=12.89
08/06/2021,13:25:50,TEMP=0.2,BA=5.76,STAT.B=Abs.,ExtBa=13.58
08/06/2021,13:31:50,TEMP=0.5,BA=5.80,STAT.F,ExtBa=13.67
08/06/2021,13:46:48,TEMP=1.2,BA=5.80,STAT.D=Abs.,ExtBa=13.80
08/06/2021,14:01:49,TEMP=2.1,BA=5.80,STAT.D=Abs.,ExtBa=13.86
08/06/2021,14:16:49,TEMP=2.8,BA=5.80,STAT.D=Abs.,ExtBa=13.92
08/06/2021,14:31:51,TEMP=3.9,BA=5.80,STAT.F,ExtBa=14.03
08/06/2021,14:46:49,TEMP=4.6,BA=5.64,STAT.D=Abs.,ExtBa=13.97
08/06/2021,15:01:49,TEMP=4.8,BA=5.76,STAT.D=Abs.,ExtBa=14.17
08/06/2021,15:16:50,TEMP=5.1,BA=5.76,STAT.D=Abs.,ExtBa=14.26
08/06/2021,15:31:51,TEMP=5.1,BA=5.72,STAT.F,ExtBa=14.32
08/06/2021,15:46:50,TEMP=5.3,BA=5.64,STAT.D=Abs.,ExtBa=14.28
08/06/2021,16:01:50,TEMP=5.4,BA=5.68,STAT.D=Abs.,ExtBa=14.34
08/06/2021,16:16:50,TEMP=6.0,BA=5.68,STAT.D=Abs.,ExtBa=14.35
08/06/2021,16:31:52,TEMP=6.8,BA=5.68,STAT.F,ExtBa=14.33
08/06/2021,16:46:50,TEMP=7.2,BA=5.64,STAT.D=Abs.,ExtBa=14.31
08/06/2021,17:01:50,TEMP=7.3,BA=5.64,STAT.D=Abs.,ExtBa=14.30
08/06/2021,17:16:50,TEMP=7.1,BA=5.64,STAT.D=Abs.,ExtBa=14.30
08/06/2021,17:31:51,TEMP=7.8,BA=5.64,STAT.F,ExtBa=14.16
08/06/2021,17:53:42,TEMP=6.3,BA=5.64,STAT.D=Abs.,ExtBa=13.99
08/06/2021,18:08:29,TEMP=7.0,BA=5.64,STAT.D=Abs.,ExtBa=14.08
08/06/2021,18:23:15,TEMP=7.6,BA=5.64,STAT.D=Abs.,ExtBa=14.18
08/06/2021,18:31:51,TEMP=7.6,BA=5.64,STAT.F,ExtBa=14.21
08/06/2021,18:46:49,TEMP=7.3,BA=5.64,STAT.D=Abs.,ExtBa=14.30
08/06/2021,19:01:49,TEMP=7.4,BA=5.64,STAT.D=Abs.,ExtBa=14.29
08/06/2021,19:16:49,TEMP=7.1,BA=5.64,STAT.D=Abs.,ExtBa=14.27
08/06/2021,19:31:50,TEMP=7.0,BA=5.64,STAT.F,ExtBa=14.26
08/06/2021,19:37:50,TEMP=6.9,BA=5.64,STAT.B=Abs.,ExtBa=14.25
08/06/2021,19:53:34,TEMP=7.0,BA=5.64,STAT.A=Abs.,ExtBa=14.26
08/06/2021,20:06:02,TEMP=6.7,BA=5.64,STAT.A=Abs.,ExtBa=14.25
08/06/2021,20:16:11,TEMP=6.5,BA=5.64,STAT.A=Abs.,ExtBa=14.24
08/06/2021,20:24:40,TEMP=6.6,BA=5.64,STAT.A=Abs.,ExtBa=14.23
08/06/2021,20:31:51,TEMP=6.5,BA=5.64,STAT.C=Abs.,ExtBa=14.18
08/06/2021,20:43:55,TEMP=5.9,BA=5.64,STAT.A=Abs.,ExtBa=13.40
08/06/2021,20:46:55,TEMP=5.8,BA=5.64,STAT.A=Abs.,ExtBa=13.42
08/06/2021,20:49:56,TEMP=5.4,BA=5.64,STAT.A=Abs.,ExtBa=13.37
08/06/2021,20:52:59,TEMP=5.1,BA=5.60,STAT.A=Abs.,ExtBa=13.66
08/06/2021,20:56:05,TEMP=5.3,BA=5.60,STAT.B=Abs.,ExtBa=13.85
08/06/2021,21:03:57,TEMP=5.1,BA=5.64,STAT.A=Abs.,ExtBa=13.61
08/06/2021,21:10:04,TEMP=4.9,BA=5.64,STAT.A=Abs.,ExtBa=13.97
08/06/2021,21:15:04,TEMP=4.8,BA=5.64,STAT.A=Abs.,ExtBa=14.04
08/06/2021,21:19:13,TEMP=4.8,BA=5.64,STAT.A=Abs.,ExtBa=14.04
08/06/2021,21:22:41,TEMP=4.8,BA=5.64,STAT.A=Abs.,ExtBa=14.02
08/06/2021,21:25:41,TEMP=4.8,BA=5.64,STAT.A=Abs.,ExtBa=13.99